カタログに戻る

COSMOS 1275 DEB

運用中PO
NORAD 42118·DEBRIS·🇷🇺 Russia

打ち上げ Jun 4, 1981 から Plesetsk Cosmodrome

Loading…

次のパス (今後24時間)

TLE

最新Source: Space-Track

元期: Sep 13, 2026, 23:20 UTC

1 42118U 81053QE  26256.97250828  .00008004  00000-0  17255-2 0  9999
2 42118  82.9441  95.2950 0031408 191.8545 168.1922 14.58015904663691

AllMySatでCOSMOS 1275 DEBをリアルタイム追跡

Download on the App Store